This is the latest recevied weather packets stored in our database for station/object EA1FWM-12. If no packets are shown the sender has not sent any weather packets the latest 10 day(s).
| Time | Temp. | Humidity | Pressure | Rain* | Wind** | Luminosity | Snow |
|---|---|---|---|---|---|---|---|
| 1778047057 | 6.11° C | 89% | 1018.5 hPa | - | - | - | - |
| 1778045457 | 6.11° C | 89% | 1018.5 hPa | - | - | - | - |
| 1778044558 | 6.11° C | 89% | 1018.5 hPa | - | - | - | - |
| 1778043658 | 6.11° C | 89% | 1018.5 hPa | - | - | - | - |
| 1778042758 | 6.11° C | 89% | 1018.4 hPa | - | - | - | - |
| 1778041858 | 6.11° C | 89% | 1018.4 hPa | - | - | - | - |
| 1778040959 | 6.11° C | 89% | 1018.5 hPa | - | - | - | - |
| 1778040059 | 5.56° C | 88% | 1018.5 hPa | - | - | - | - |
| 1778039159 | 6.11° C | 88% | 1018.6 hPa | - | - | - | - |
| 1778038259 | 6.11° C | 88% | 1018.6 hPa | - | - | - | - |
| 1778036460 | 6.67° C | 88% | 1018.8 hPa | - | - | - | - |
| 1778035560 | 6.67° C | 88% | 1018.8 hPa | - | - | - | - |
| 1778034661 | 6.67° C | 88% | 1018.9 hPa | - | - | - | - |
| 1778033762 | 6.67° C | 88% | 1018.9 hPa | - | - | - | - |
| 1778032864 | 6.67° C | 88% | 1019.1 hPa | - | - | - | - |
| 1778031964 | 6.11° C | 88% | 1019.2 hPa | - | - | - | - |
| 1778030165 | 6.11° C | 87% | 1019.3 hPa | - | - | - | - |
| 1778029265 | 6.11° C | 87% | 1019.5 hPa | - | - | - | - |
| 1778028365 | 6.67° C | 87% | 1019.6 hPa | - | - | - | - |
| 1778027465 | 6.67° C | 87% | 1019.7 hPa | - | - | - | - |
| 1778026566 | 7.22° C | 87% | 1019.7 hPa | - | - | - | - |
| 1778025666 | 7.22° C | 87% | 1019.9 hPa | - | - | - | - |
| 1778024766 | 6.67° C | 87% | 1019.9 hPa | - | - | - | - |
| 1778023867 | 6.67° C | 87% | 1019.9 hPa | - | - | - | - |
| 1778022967 | 7.22° C | 86% | 1020 hPa | - | - | - | - |
* Rain since midnight (hover to see other rain measurements)
** Current wind speed in m/s (hover to see current wind gust speed)